Location: ??????????
(42.1626°N, 44.1160°E)
Time: 13:32:37
(UTC+00:00)

Nadezhda 3 Rocket - Pass Details

Date: 03 March 2021
Orbit: 956 x 999 km, 82.9° (Epoch: 20 April)

Event Time Altitude Azimuth Distance (km) Brightness Sun altitude
Rises 15:43:47 0° 354° (N) 3,725 7.1 -9.7°
Reaches altitude 10° 15:46:20 10° 357° (N) 2,775 6.4 -10.1°
Maximum altitude 15:52:42 70° 81° (E) 1,059 4.0 -11.3°
Drops below altitude 10° 15:59:02 10° 165° (SSE) 2,759 6.2 -12.5°
Sets 16:01:34 0° 167° (SSE) 3,702 6.9 -12.9°
